Погода Кики Акки

Погода Кики Акки : погода сейчас, прогноз погоды и архив. Всё, что Вы хотите узнать о погоде Кики Акки!

Хотите узнать прогноз погоды Кики Акки? Тогда Вам сюда: Погода Кики Акки

Поиск расширенной информации на нашем сайте:

Другие новости

Новости СМИ2

Главная страница сайта

Новости сайта

02.10.2013

Напоминаем, что на нашем новом сайте вы можете получить высокодетализированные прогнозы погоды по пунктам России, СНГ и мира (включающие важные для авиации метеовеличины, такие как направление и скорость ветра, видимость, явления погоды, количество и форма облачности, нижняя и верхняя граница облачности), а также ознакомиться с разнообразными материалами по авиационной метеорологии и подборкой полезных ссылок на эту тему.

Сайт Метеоцентр.Азия посвящён разработке технологий оптимизации авиаметеорологического обслуживания, включая проектирование и перспективное создание нескольких автоматизированных авиаметеорологических систем:
- система выпуска высокодетальных прогностических карт явлений погоды для нижнего воздушного пространства по России и ближнему зарубежью;
- система верификации прогнозов TAF (выпускаемых синоптиками официальных АМСГ РФ и ближнего зарубежья) и AUTOTAF (выпускаемых сайтом Метеоцентр.Азия) - выявление ошибок, онлайн-сопоставление с фактической погодой METAR, автоматическое внесение коррективов в прогнозы при резком отклонении фактической погоды от прогноза, подсчёт оправдываемости прогнозов по элементам и в целом;
- система обработки, анализа и отображения авиаметеорологической информации для применения провайдерами метеорологической информации.

Рекомендуем: Рыбалка сайт о рыбалке.

Погода Кики Акки - сегодня

Время (UTC), дата Ветер
(°,м/с) 
Видим.   Явления Облачность Т
(°С)
Тd
(°С)
f(%) Тe
(°С)
Pmin
(гПа)
dP
(гПа)
Po
(мм)
O2
(г/м3)
Тmin Tmax R s Состояние
почвы
06 20.03.17 220 (ЮЗ) 20000 м    ясно 
-0.6 -12.9 39 -1  1028.7  0.2  768  311           
09 20.03.17 240 (ЮЗ) 20000 м    ясно 
+2.8 -12.7 31 +4  1028.6  0.1  768  308           
12 20.03.17 240 (ЮЗ) 20000 м    ясно 
+0.3 -12.5 38 +1  1029.1  0.4  769  310           
15 20.03.17 180 (Ю) 20000 м    8/0 верхняя 
[Ci fib]
-9.3 -12.5 77 -9  1029.1  -0.2  768  322          сухая 
18 20.03.17 180 (Ю) 20000 м    10/0 средняя, верхняя 
[Ac trans|Ci fib]
-7.6 -12.4 68 -7  1028.5  -0.5  768  320           
21 20.03.17 190 (Ю) 20000 м    10/0 средняя, верхняя 
[Ac trans|Ci sp]
-7 -13.7 59 -7  1028.3  -0.2  768  319           
00 21.03.17 220 (ЮЗ) 20000 м    10/0 средняя, верхняя 
[Ac trans|Ci sp]
-10.9 -15.7 68 -11  1028.5  -0.1  768  324           
03 21.03.17 240 (ЮЗ) 20000 м    10/0 верхняя 
[Ci fib]
-7.7 -15.8 52 -9  1029.1  0.7  768  320  -11.4      82  неравномерный
сухой снег
100% 
06 21.03.17 250 (З) 20000 м    10/0 верхняя 
[Ci fib]
-3 -14.4 41 -5  1029.3  0.3  769  314           
09 21.03.17 250 (З) 20000 м    8/0 верхняя 
[Ci fib]
+0.6 -14.5 31 1029.3  0.1  769  310           
12 21.03.17 250 (З) 20000 м    5/0 верхняя 
[Ci fib]
-0.3 -15.4 31 -1  1029.2  0.1  799  324           
15 21.03.17 240 (ЮЗ) 20000 м    ясно 
-5.8 -14.9 49 -5  1029.5  0.1  769  318    +1.1       
18 21.03.17 200 (Ю) 20000 м    ясно 
-9.5 -15.6 61 -9  1028.9  -0.7  768  322           
21 21.03.17 230 (ЮЗ) 20000 м    ясно 
-12.9 -16.6 74 -13  1029.1  0.1  768  326           
00 22.03.17 200 (Ю) 20000 м    ясно 
-16.3 -18.1 86 -16  1029.4  0.3  769  331           
03 22.03.17 220 (ЮЗ) 20000 м    10/0 верхняя 
[Ci sp]
-7.2 -15.5 51 -7  1029.1  0.1  768  319  -16.4      82  неравномерный
сухой снег
100% 
06 22.03.17 230 (ЮЗ) 20000 м    8/0 верхняя 
[Ci fib]
-2.1 -14.7 37 -3  1028.3  -0.7  768  313           
09 22.03.17 250 (З) 20000 м    8/0 средняя, верхняя 
[Ac trans|Ci fib]
+1.2 -14.4 30 +1  1027.6  -0.7  767  309           
12 22.03.17 220 (ЮЗ) 20000 м    10/0 средняя 
[Ac As]
+1 -12.8 35 +2  1026.7  -0.9  767  309           
15 22.03.17 210 (ЮЗ) 20000 м    10/4 600 м средняя 
[Sc|Ac As]
-0.1 -11.9 41 -1  1025.8  -0.9  766  310    +2       
18 22.03.17 210 (ЮЗ) 20000 м    10/0 средняя 
[Ac As]
-2.5 -12.9 45 -4  1024.2  -1.6  765  312           
21 22.03.17 220 (ЮЗ) 20000 м    10/0 средняя 
[Ac As]
-5.3 -15.2 46 -7  1023.3  -0.9  764  315           
00 23.03.17 210 (ЮЗ) 20000 м    10/0 средняя, верхняя 
[Ac trans|Ci fib]
-7.6 -15 55 -7  1022.9  -0.4  764  318           
03 23.03.17 240 (ЮЗ) 20000 м    10/0 средняя, верхняя 
[Ac trans|Ci fib]
-4.8 -13.3 51 -7  1023.1  0.2  764  315  -8      81  неравномерный
сухой снег
100% 
06 23.03.17 240 (ЮЗ) 20000 м    6/0 средняя, верхняя 
[Ac trans|Ci fib]
-0.4 -11.1 44 -2  1023.1  0.1  764  309           
Время (UTC), дата Ветер
(°,м/с) 
Видим.   Явления Облачность Т
(°С)
Тd
(°С)
f(%) Тe
(°С)
Pmin
(гПа)
dP
(гПа)
Po
(мм)
O2
(г/м3)
Тmin Tmax R s Состояние
почвы

Для получения пояснительной информации подведите курсор к названию столбца.

ПОГОДА Кики Акки - архив

Всё, что Вы хотите узнать о погоде Кики Акки - удобно и подробно!

Выберите нужную дату (начиная с 1 января 2015* года) и нажмите кнопку "Найти".
Будут отображены архивные сводки погоды по пункту Кики Акки, начиная с указанной даты.


Отображать данные в формате CSV (для использования в таблицах Excel)


Внимание! Наш архив погоды предназначен исключительно для личного некоммерческого использования в познавательных целях. Если Вам необходимы официальные справки о состоянии погоды (для производственных, юридических, коммерческих и т.п. целей), обращайтесь в органы Росгидромета.

*Примечание: данная дата относится к архиву по метеостанциям СССР (Россия, СНГ, Балтия).
Архив по метеостанциям Зарубежной Европы и Азии (кроме Китая) хранится 10 дней, по другим регионам земного шара (Китай, Африка, Америка, Австралия, Океания) - 1 день.

Кики Акки - район местоположения метеостанции


Название, широта, долгота, высота метеостанции:
Кики Акки (Толька) 63.8°ш. 82.7°д. 33 м над ур. моря [Российская Федерация]

Дополнительная информация

В oтличие oт бoльшинства пoгoдных сайтoв мы публикуем пoдрoбную метеoинфoрмацию в детальнoм прoфессиoнальнoм фoрмате.

Характеристики температуры и влажнoсти вoздуха измеряются на высoте 2 м в тени вдали oт зданий и деревьев.
Скoрoсть ветра измеряется на высoте 10 м (на урoвне рoста челoвека скoрoсть ветра ниже в 1.5-2 раза). Если метеoстанция нахoдится в гoрoде или в лесу, тo скoрoсть ветра занижена на 2-4 м/с пo сравнению с oткрытым местoм. Скoрoсть ветра над акватoриями крупных рек и oзёр, а также на вершинах хoлмoв на 2-5 м/с выше, чем в oбычных услoвиях.
Атмoсфернoе давление в разных тoчках местнoсти мoжет значительнo oтличаться oт давления на метеoстанции, в зависимoсти oт услoвий рельефа (при пoдъёме на 10 м давление пoнижается примернo на 1 мм рт.ст.).